Regional Weather Roundup
Issued by NWS Cleveland, OH

Home | Current Version | Previous Version | Graphics & Text | Print | Product List | Glossary On
Versions: 1 2 3 4 5 6 7 8 9 10 11 12 13 14 15 16 17 18 19 20 21 22 23 24 25 26 27 28 29 30 31 32 33 34 35 36 37 38 39 40 41 42 43 44 45 46 47 48 49 50
209
ASUS41 KCLE 240802
RWRCLE
OHIO REGIONAL WEATHER ROUNDUP
NATIONAL WEATHER SERVICE CLEVELAND, OH
400 AM EDT FRI MAR 24 2017

NOTE: "FAIR" INDICATES FEW OR NO CLOUDS BELOW 12,000 FEET WITH NO
SIGNIFICANT WEATHER AND/OR OBSTRUCTIONS TO VISIBILITY.

OHZ001>008-015>018-024>027-034-035-043-044-240900-
   NORTHWEST OHIO

CITY           SKY/WX    TMP DP  RH WIND       PRES   REMARKS
DEFIANCE       CLOUDY    43  36  76 SE3       30.07F
FINDLAY        MOCLDY    46  34  62 SE8       30.09F
TOLEDO EXPRESS MOCLDY    41  37  86 S7        30.07F
TOLEDO EXEC    CLOUDY    44  38  79 S10       30.09F
LIMA           CLOUDY    49  36  61 S12       30.09F
$$

OHZ009>014-019>023-028>033-038-089-240900-
   NORTHEAST OHIO

CITY           SKY/WX    TMP DP  RH WIND       PRES   REMARKS
CLE-HOPKINS    LGT RAIN  43  34  70 S14G23    30.17F
CLE-LAKEFRONT  HVY RAIN  40  33  76 S21G29    30.13F
CUY CO. ARPT   NOT AVBL
LORAIN-ELYRIA  LGT RAIN  38  32  79 S15       30.15F
ASHTABULA      LGT RAIN  38  24  57 S9        30.16F
AKRON-CANTON   LGT RAIN  40  30  67 S9        30.18F
WOOSTER        LGT RAIN  38  34  85 CALM      30.17F
MANSFIELD      CLOUDY    44  34  67 S10       30.15S
YOUNGSTOWN     LGT RAIN  43  18  36 S9        30.18F
$$

OHZ042-051>053-060>062-070>072-077>081-240900-
  SOUTHWEST OHIO

CITY           SKY/WX    TMP DP  RH WIND       PRES   REMARKS
CINC-COVINGTON CLOUDY    53  38  56 S12       30.14F
CINC-LUNKEN    CLOUDY    50  40  68 S8        30.16F
HAMILTON       PTCLDY    55  38  52 VRB5      30.14F
DAYTON         CLOUDY    52  33  48 S13       30.12F
WRIGHT-PAT AFB CLOUDY    49  32  51 SE6       30.12F
DAYTON GENERAL PTCLDY    53  37  54 S9        30.12F
WILMINGTON     CLOUDY    51  37  58 S10       30.14F
$$

OHZ036-037-039>041-045>050-054>059-063>069-073>076-082>088-240900-
  CENTRAL AND SOUTHEAST OHIO

CITY           SKY/WX    TMP DP  RH WIND       PRES   REMARKS
COLUMBUS       CLOUDY    49  31  49 SE6       30.15F
OSU AIRPORT    PTCLDY    48  29  47 S7        30.15F
BOLTON FIELD   CLOUDY    45  31  59 S7        30.16S
RICKENBACK AFB CLOUDY    50  31  48 S9        30.15F
NEWARK         MOCLDY    44  34  67 SE5       30.16F
MARION         CLOUDY    47  31  53 S12       30.13F
LANCASTER      CLOUDY    50  30  46 SE6       30.16F
ZANESVILLE     MOCLDY    47  31  53 S10       30.18F
NEW PHILLY     NOT AVBL
$$




USA.gov is the U.S. government's official web portal to all federal, state and local government web resources and services.